CFE7348 LFLB-EGLC

Flight info

Callsign CFE7348
Flight time N/A
Altitude 36000
Route BUSIL DCT AMORO DCT MOMIL DCT BAGBI DCT SIZZA DCT LAULY DCT BRY DCT CLM DCT KOPOR DCT VESAN DCT RATUK L613 SOVAT
Aircraft E190/M-SDE3GILORVW/S

Departure

Time 2026-04-16 13:57
Airport Chambéry Aix les Bains airport (LFLB)

Arrival

Time N/A
Airport London City Airport (EGLC)
Time Latitude Longitude Altitude Speed Heading
2026-04-16 13:26 45.63849 5.88313 776 ft 0 kts 86°
2026-04-16 13:49 45.63848 5.88285 777 ft 4 kts 84°
2026-04-16 13:49 45.63842 5.88252 777 ft 4 kts 34°
2026-04-16 13:49 45.63826 5.88246 777 ft 4 kts 357°
2026-04-16 13:50 45.63808 5.88247 777 ft 0 kts 357°
2026-04-16 13:52 45.63814 5.88247 777 ft 2 kts 357°
2026-04-16 13:52 45.63839 5.88245 777 ft 6 kts 357°
2026-04-16 13:53 45.63891 5.88240 778 ft 9 kts 356°
2026-04-16 13:53 45.63950 5.88236 779 ft 8 kts 357°
2026-04-16 13:53 45.64019 5.88233 781 ft 12 kts 354°
2026-04-16 13:53 45.64045 5.88150 781 ft 11 kts 265°
2026-04-16 13:54 45.64041 5.88035 781 ft 11 kts 284°
2026-04-16 13:54 45.64114 5.88000 783 ft 13 kts 355°
2026-04-16 13:54 45.64220 5.87991 785 ft 17 kts 357°
2026-04-16 13:54 45.64368 5.87980 785 ft 25 kts 356°
2026-04-16 13:55 45.64536 5.87967 787 ft 24 kts 357°
2026-04-16 13:55 45.64676 5.87981 787 ft 12 kts 11°
2026-04-16 13:55 45.64677 5.87953 787 ft 2 kts 207°
2026-04-16 13:55 45.64663 5.87955 787 ft 3 kts 179°
2026-04-16 13:56 45.64632 5.87957 787 ft 12 kts 175°
2026-04-16 13:56 45.64286 5.87984 786 ft 89 kts 176°
2026-04-16 13:56 45.63427 5.88057 780 ft 155 kts 176°
2026-04-16 13:56 45.62282 5.88175 1373 ft 162 kts 175°
2026-04-16 13:57 45.61180 5.88309 2304 ft 163 kts 176°
2026-04-16 13:57 45.59957 5.88396 2923 ft 183 kts 178°
2026-04-16 13:57 45.58708 5.88433 3997 ft 179 kts 178°
2026-04-16 13:58 45.56234 5.88345 5700 ft 181 kts 200°
2026-04-16 13:58 45.55234 5.87286 6466 ft 182 kts 236°
2026-04-16 13:58 45.54749 5.85650 7231 ft 179 kts 257°
2026-04-16 13:58 45.54467 5.83926 8049 ft 178 kts 258°
2026-04-16 13:59 45.54199 5.82206 8751 ft 178 kts 258°
2026-04-16 13:59 45.53959 5.80470 9242 ft 179 kts 259°
2026-04-16 13:59 45.53784 5.78662 9592 ft 187 kts 267°
2026-04-16 13:59 45.53924 5.76788 9958 ft 198 kts 284°
2026-04-16 14:00 45.54449 5.74844 10143 ft 220 kts 292°
2026-04-16 14:00 45.55131 5.72800 10454 ft 238 kts 295°
2026-04-16 14:00 45.55896 5.70558 10663 ft 268 kts 295°
2026-04-16 14:00 45.56759 5.68025 10894 ft 296 kts 295°
2026-04-16 14:01 45.57678 5.65269 11241 ft 316 kts 294°
2026-04-16 14:01 45.58619 5.62409 12023 ft 321 kts 294°
2026-04-16 14:01 45.59560 5.59513 12984 ft 321 kts 295°
2026-04-16 14:01 45.60496 5.56655 13991 ft 322 kts 295°
2026-04-16 14:02 45.61447 5.53753 14916 ft 323 kts 295°
2026-04-16 14:02 45.62413 5.50834 15823 ft 327 kts 295°
2026-04-16 14:02 45.63405 5.47887 16679 ft 331 kts 296°
2026-04-16 14:02 45.64737 5.45134 17450 ft 338 kts 315°
2026-04-16 14:03 45.66667 5.43275 18173 ft 345 kts 335°
2026-04-16 14:03 45.68926 5.42066 18889 ft 350 kts 339°
2026-04-16 14:03 45.71241 5.40936 19601 ft 353 kts 340°
2026-04-16 14:03 45.73584 5.39840 20327 ft 356 kts 340°
2026-04-16 14:04 45.75991 5.38760 21038 ft 359 kts 340°
2026-04-16 14:04 45.78240 5.37325 21671 ft 360 kts 326°
2026-04-16 14:04 45.80289 5.35281 22343 ft 361 kts 322°
2026-04-16 14:04 45.82317 5.33116 22950 ft 364 kts 321°
2026-04-16 14:05 45.84352 5.30928 23556 ft 367 kts 321°
2026-04-16 14:05 45.86402 5.28730 24104 ft 370 kts 321°
2026-04-16 14:05 45.88471 5.26517 24656 ft 371 kts 322°
2026-04-16 14:05 45.90546 5.24299 25177 ft 373 kts 322°
2026-04-16 14:06 45.92632 5.22061 25668 ft 375 kts 322°
2026-04-16 14:06 45.94727 5.19812 26164 ft 377 kts 322°
2026-04-16 14:06 45.96843 5.17532 26377 ft 387 kts 322°
2026-04-16 14:06 45.99046 5.15157 26419 ft 402 kts 322°
2026-04-16 14:07 46.01320 5.12700 26313 ft 416 kts 322°
2026-04-16 14:07 46.03635 5.10198 26163 ft 414 kts 322°
2026-04-16 14:07 46.05922 5.07643 26222 ft 417 kts 317°
2026-04-16 14:07 46.07967 5.04672 26249 ft 418 kts 311°
2026-04-16 14:08 46.09900 5.01551 26215 ft 417 kts 311°
2026-04-16 14:08 46.11864 4.98456 26230 ft 417 kts 312°
2026-04-16 14:08 46.13864 4.95419 26226 ft 418 kts 313°
2026-04-16 14:08 46.15874 4.92404 26234 ft 418 kts 313°
2026-04-16 14:09 46.17891 4.89385 26233 ft 418 kts 313°
2026-04-16 14:09 46.19908 4.86370 26238 ft 417 kts 313°
2026-04-16 14:09 46.21922 4.83355 26235 ft 417 kts 313°
2026-04-16 14:09 46.23938 4.80336 26239 ft 418 kts 313°
2026-04-16 14:10 46.25953 4.77316 26237 ft 417 kts 313°
2026-04-16 14:10 46.27965 4.74296 26239 ft 417 kts 313°
2026-04-16 14:10 46.30062 4.71394 26253 ft 418 kts 321°
2026-04-16 14:10 46.32458 4.69103 26260 ft 420 kts 327°
2026-04-16 14:11 46.34967 4.66910 26231 ft 419 kts 327°
2026-04-16 14:11 46.37470 4.64749 26243 ft 420 kts 327°
2026-04-16 14:11 46.39980 4.62578 26239 ft 420 kts 327°
2026-04-16 14:11 46.42485 4.60406 26246 ft 419 kts 327°
2026-04-16 14:12 46.44986 4.58233 26238 ft 419 kts 327°
2026-04-16 14:12 46.47491 4.56058 26243 ft 419 kts 328°
2026-04-16 14:12 46.50193 4.54466 26267 ft 425 kts 346°
2026-04-16 14:12 46.53157 4.54102 26290 ft 429 kts 355°
2026-04-16 14:13 46.56142 4.54139 26232 ft 431 kts
2026-04-16 14:13 46.59120 4.54816 26224 ft 434 kts
2026-04-16 14:13 46.62096 4.55530 26230 ft 433 kts